Tracking 28091 objects as of 30-Sep-2023
HD Live streaming from Space Station
objects crossing your sky now

SBS 3

Track SBS 3 now!
SBS 3 is classified as:


NORAD ID: 13651
Int'l Code: 1982-110B
Perigee: 35,852.6 km
Apogee: 35,931.1 km
Inclination: 13.6 °
Period: 1,441.1 minutes
Semi major axis: 42262 km
RCS: 15.8489 m2 (large)
Launch date: November 11, 1982
Source: United States (US)
Launch site: AIR FORCE EASTERN TEST RANGE (AFETR)
Your satellite tracking list
Your tracking list is empty




NASA's NSSDC Master Catalog

Two Line Element Set (TLE):
1 13651U 82110B   23272.28748024  .00000055  00000-0  00000-0 0  9999
2 13651  13.5569 341.5379 0009286 122.2681 238.2434  0.99922884 36620
Source of the keplerian elements: AFSPC